Philip, SD

8:14 PM MST on December 16, 2017 (GMT -0700)
Philip

Weather History for KPHP - September, 2012

Change the Weather History Date:

Friday, September 28, 2012

  Actual Average Record
Temperature  
Mean Temperature 64 °F 56 °F  
Max Temperature 82 °F 72 °F 93 °F (2011)
Min Temperature 45 °F 41 °F 20 °F (1951)
Degree Days  
Heating Degree Days 1 9  
Month to date heating degree days 83 141  
Since 1 July heating degree days 88 166  
Cooling Degree Days 0 1  
Month to date cooling degree days 89 78  
Year to date cooling degree days 1200 813  
Growing Degree Days 13 (Base 50)    
Moisture  
Dew Point 37 °F    
Average Humidity 43    
Maximum Humidity 65    
Minimum Humidity 21    
Precipitation  
Precipitation 0.00 in 0.05 in 0.77 in (1988)
Month to date precipitation T 1.39  
Year to date precipitation 5.99 14.77  
Sea Level Pressure  
Sea Level Pressure 30.08 in    
Wind  
Wind Speed 5 mph (SE)    
Max Wind Speed 13 mph    
Max Gust Speed 16 mph    
Visibility 10 miles    
Events      
T = Trace of Precipitation, MM = Missing Value Source: NWS Daily Summary

Daily Weather History Graph

Daily Weather History Graph

Search for Another Location

Airport or City:

Trip Planner

Search our weather history database for the weather conditions in past years. The results will help you decide how hot, cold, wet, or windy it might be!

Date:

Astronomy

Sep. 28, 2012 Rise Set
Actual Time 6:41 AM MDT 6:31 PM MDT
Civil Twilight 6:12 AM MDT 7:00 PM MDT
Nautical Twilight 5:38 AM MDT 7:33 PM MDT
Astronomical Twilight 5:04 AM MDT 8:08 PM MDT
Moon 5:35 PM MDT (9/28) 5:12 AM MDT (9/28)
Length of Visible Light 12h 48m
Length of Day
11h 50m
Waxing Gibbous, 98% of the Moon is Illuminated
Sep 28
Waxing Gibbous
Sep 29
Full
Oct 8
Last Quarter
Oct 15
New
Oct 21
First Quarter

Hourly Weather History & Observations

Time (MDT) Temp. Windchill Dew Point Humidity Pressure Visibility Wind Dir Wind Speed Gust Speed Precip Events Conditions
12:55 AM 54.0 °F - 36.0 °F 51% 30.09 in 10.0 mi East 3.5 mph - N/A   Clear
1:55 AM 50.0 °F - 36.0 °F 59% 30.10 in 10.0 mi East 3.5 mph - N/A   Clear
2:55 AM 51.1 °F - 36.0 °F 56% 30.10 in 10.0 mi ENE 3.5 mph - N/A   Clear
3:55 AM 46.9 °F - 35.1 °F 63% 30.12 in 10.0 mi Calm Calm - N/A   Clear
4:55 AM 46.9 °F - 35.1 °F 63% 30.12 in 10.0 mi West 4.6 mph - N/A   Clear
5:55 AM 46.0 °F 44.8 °F 36.0 °F 68% 30.13 in 10.0 mi West 3.5 mph - N/A   Clear
6:55 AM 46.0 °F 43.1 °F 35.1 °F 66% 30.14 in 10.0 mi WNW 5.8 mph - N/A   Scattered Clouds
7:55 AM 50.0 °F - 36.0 °F 59% 30.14 in 10.0 mi WSW 3.5 mph - N/A   Clear
8:55 AM 59.0 °F - 37.9 °F 46% 30.14 in 8.0 mi West 5.8 mph - N/A   Clear
9:55 AM 71.1 °F - 43.0 °F 36% 30.12 in 10.0 mi Calm Calm - N/A   Clear
10:55 AM 75.9 °F - 43.0 °F 31% 30.12 in 10.0 mi Calm Calm - N/A   Clear
11:55 AM 78.1 °F - 41.0 °F 27% 30.10 in 10.0 mi ESE 6.9 mph - N/A   Clear
12:55 PM 79.0 °F - 37.0 °F 22% 30.08 in 10.0 mi SSE 4.6 mph - N/A   Clear
1:55 PM 80.1 °F - 37.9 °F 22% 30.06 in 10.0 mi South 11.5 mph - N/A   Clear
2:55 PM 80.1 °F - 39.9 °F 24% 30.04 in 10.0 mi SE 9.2 mph - N/A   Partly Cloudy
3:55 PM 79.0 °F - 39.0 °F 24% 30.03 in 10.0 mi ESE 6.9 mph - N/A   Mostly Cloudy
4:55 PM 80.1 °F - 37.9 °F 22% 30.01 in 10.0 mi SSE 5.8 mph - N/A   Clear
5:55 PM 77.0 °F - 39.0 °F 25% 30.01 in 10.0 mi SE 6.9 mph - N/A   Clear
6:55 PM 69.1 °F - 37.9 °F 32% 30.02 in 10.0 mi ESE 3.5 mph - N/A   Clear
7:55 PM 60.1 °F - 36.0 °F 41% 30.04 in 10.0 mi East 6.9 mph - N/A   Clear
8:55 PM 59.0 °F - 36.0 °F 42% 30.04 in 10.0 mi East 8.1 mph - N/A   Clear
9:55 PM 63.0 °F - 35.1 °F 35% 30.03 in 10.0 mi SSE 6.9 mph - N/A   Clear
10:55 PM 57.0 °F - 35.1 °F 44% 30.03 in 10.0 mi East 6.9 mph - N/A   Clear
11:55 PM 57.0 °F - 37.0 °F 47% 30.02 in 10.0 mi ESE 3.5 mph - N/A   Clear